www.pogodaiklimat.ru

ПОГОДА в Чебойгане, MI

  • Прогноз погоды в Чебойгане
  • Монитор погоды в Чебойгане
  • Климат в Чебойгане

АРХИВ ПОГОДЫ в Чебойгане

Время (UTC), дата Ветер
(напр.,м/с)
 
Видим.   Явления Облачность Т
(С)
Тd
(С)
f
(%)
Тe
(С)
Тes
(С)
Комфортность

P
(гПа)

Po
(гПа)
Тmin
(С)
Tmax
(С)
R
(мм)
SD
(см)
15:15 22.05 ЮВ  6
{8} 
16 км    10/10 1950 м  +11.8  +6.8  71  +9  +9      993.2         
15:16 22.05 ЮВ  16 км    10/10 1950 м  +11.9  +6.7  70  +9  +9      993.2         
15:35 22.05 ЮВ  5
{8} 
16 км    10/10 1950 м  +12.5  +6.6  67  +10  +10      992.9         
15:36 22.05 ЮВ  5
{8} 
16 км    10/10 1950 м  +12.5  +6.6  67  +10  +10      992.9         
15:55 22.05 ЮВ  6
{8} 
16 км    10/10 1950 м  +12.4  +6.5  67  +10  +10      992.2         
16:15 22.05 ЮВ  5
{9} 
16 км    10/10 1650 м  +13.0  +6.3  64  +11  +11      991.9         
16:35 22.05 ЮВ  4
{7} 
16 км    10/10 1650 м  +13.4  +6.1  61  +12  +12      992.2         
16:36 22.05 ЮВ  4
{7} 
16 км    10/10 1650 м  +13.4  +6.2  62  +12  +12      992.2         
16:55 22.05 ЮВ  16 км    10/10 1320 м  +12.9  +5.8  62  +10  +10      991.9  +9.0  +13.5     
16:56 22.05 ЮВ  16 км    10/10 1320 м  +12.9  +5.8  62  +11  +11      991.9  +9.0  +13.5     
17:15 22.05 ЮВ  16 км    10/10 1320 м  +12.9  +5.8  62  +11  +11      991.9         
17:35 22.05 В  16 км    10/10 1200 м  +13.0  +6.2  63  +11  +11      991.5         
17:55 22.05 В  16 км    10/10 1050 м  +12.9  +7.0  67  +12  +12      991.5         
17:56 22.05 СВ  16 км    10/10 1050 м  +12.9  +7.0  67  +12  +12      991.5         
18:15 22.05 ЮВ  8
{10} 
16 км    10/10 1050 м  +14.9  +7.1  60  +13  +13      991.2         
18:16 22.05 ЮВ  8
{10} 
16 км    10/10 1050 м  +15.0  +7.1  59  +13  +13      991.2         
18:35 22.05 ЮВ  7
{11} 
16 км    10/10 1050 м  +15.7  +7.7  59  +14  +14      990.9         
18:55 22.05 ЮВ  7
{11} 
16 км    5/5 1380 м  +16.4  +8.1  58  +15  +16      990.2         
19:15 22.05 ЮВ  8
{11} 
16 км    ясно  +16.3  +7.8  57  +15  +16      990.2         
19:16 22.05 ЮВ  7
{11} 
16 км    ясно  +16.4  +7.8  57  +15  +17      989.9         
19:35 22.05 ЮВ  8
{11} 
16 км    ясно  +16.7  +7.8  56  +15  +16      989.5         
19:36 22.05 ЮВ  8
{11} 
16 км    ясно  +16.8  +7.9  56  +15  +16      989.5         
19:55 22.05 В  8
{12} 
16 км    5/5 1050 м  +17.0  +8.0  55  +16  +16      989.2         
20:15 22.05 ЮВ  7
{11} 
16 км    5/5 1050 м  +17.1  +8.1  55  +16  +17      989.2         
20:35 22.05 ЮВ  7
{10} 
16 км    ясно  +16.9  +7.8  55  +16  +17      989.2         
20:36 22.05 ЮВ  7
{9} 
16 км    ясно  +16.8  +7.8  55  +15  +17      989.2         
20:55 22.05 В  7
{9} 
16 км    ясно  +16.5  +7.9  57  +15  +17      989.2         
20:56 22.05 В  7
{9} 
16 км    ясно  +16.5  +7.8  56  +15  +17      989.2         
21:15 22.05 СВ  16 км    ясно  +15.1  +7.0  58  +14  +17      989.5         
21:16 22.05 СВ  16 км    ясно  +14.5  +6.8  60  +13  +15      989.5         
21:35 22.05 В  4
{7} 
16 км    ясно  +12.0  +6.2  68  +10  +13      989.2         
21:55 22.05 В  16 км    ясно  +11.5  +5.4  66  +9  +10      988.9         
22:15 22.05 В  16 км    ясно  +10.5  +5.4  71  +8  +9      988.6         
22:16 22.05 В  16 км    ясно  +10.6  +5.4  70  +8  +10      988.6         
22:35 22.05 В  16 км    ясно  +11.3  +5.3  67  +9  +10      988.2         
22:36 22.05 В  16 км    ясно  +11.2  +5.3  67  +9  +11      988.2         
22:55 22.05 В  16 км    ясно  +11.0  +5.4  68  +9  +11      988.2  +10.3  +17.3     
23:15 22.05 В  16 км    ясно  +11.0  +5.5  69  +9  +10      988.2         
23:35 22.05 В  16 км    ясно  +11.0  +5.7  70  +9  +9      988.2         
23:36 22.05 В  16 км    ясно  +11.0  +5.7  70  +9  +9      988.2         
23:55 22.05 В  16 км    ясно  +10.4  +5.6  72  +9  +9      988.2         
23:56 22.05 В  16 км    ясно  +10.4  +5.6  72  +8  +9      988.2         
00:15 23.05 В  16 км    ясно  +9.7  +5.5  75  +7  +7      988.6         
00:35 23.05 В  16 км    ясно  +9.2  +5.6  78  +7  +7      988.2         
00:55 23.05 СВ  16 км    ясно  +8.9  +5.5  79  +6  +6      988.6         
00:56 23.05 СВ  16 км    ясно  +8.9  +5.5  79  +6  +6      988.6         
01:15 23.05 СВ  16 км    ясно  +8.6  +5.7  82  +6  +6      988.2         
01:16 23.05 СВ  16 км    ясно  +8.5  +5.7  83  +6  +6      988.2         

 

Местоположение метеостанции Cheboygan County Airport: широта 45.6536 долгота -84.5192 высота над уровнем моря 195 м.

В архиве по умолчанию представлена погода в Чебойгане за последние 1-2 суток. Обновление информации о фактической погоде в базе происходит ежечасно! Архивные данные за месяц целиком и за предыдущие месяцы Вы можете получить, выбрав интересующий диапазон дат из раскрывающегося списка и нажав кнопку "Ввод!".

Внимание! Архив погоды МЕТАР в базе сайта хранится не более 60 дней. Нет смысла пытаться выбрать более раннюю дату.

Внимание! Время в таблицах - всемирное. Для получения местного времени необходимо прибавить поправку, которая в Чебойгане равна -5 ч.

Ветер - указаны скорость ветра в м/с и направление, откуда дует ветер: С - северный, СВ - северо-восточный, В - восточный, ЮВ - юго-восточный, Ю - южный, ЮЗ - юго-западный, З - западный, СЗ - северо-западный.
Видимость - горизонтальная дальность видимости в метрах или километрах. При видимости от 1 до 10 км при отсутствии осадков обычно наблюдается дымка, при ухудшении видимости до 1 км и менее - туман. В сухую погоду видимость может ухудшаться дымом, пылью или мглою.
Атмосферные явления - указаны явления, наблюдавшиеся в указанный момент времени.
Облачность - указаны через наклонную черту верхняя и нижняя облачность в баллах и высота нижней границы облаков в метрах. Внимание: облачность, как и прочие метеорологические величины в США измеряются автоматическими метеостанциями. Указанные значения в баллах носят условный характер и показывают процент времени, в течение которого, в среднем, лазерный луч высотомера отражался от облаков обратно.
T - Температура воздуха - температура, измеренная на высоте 2 м над землей.
Td - Температура точки росы - температура, при понижении до которой содержащийся в воздухе водяной пар достигнет насыщения.
f - Относительная влажность воздуха - влажноcть воздуха, измеренная на высоте 2 м над землей.
Te - Эффективная температура - температура, которую ощущает одетый по сезону человек в тени. Характеристика душности погоды. При расчете учитывается влияние влажности воздуха и скорости ветра на теплоощущения человека.
Tes - Эффективная температура на солнце - температура, которую ощущает человек, с поправкой на солнечный нагрев. Характеристика знойности погоды. Зависит от высоты солнца над горизонтом, облачности и скорости ветра. Ночью, в пасмурную погоду, а также при ветре 12 м/с и более поправка равна нулю.
P - Атмосферное давление - приведенное к уровню моря атмосферное давление.
Po - Атмосферное давление - измеренное на уровне метеостанции атмосферное давление.
Tmin - Минимальная температура - минимум температуры воздуха на высоте 2 м над землей.
Tmax - Максимальная температура - максимум температуры воздуха на высоте 2 м над землей.
R - Количество осадков - Количество выпавших осадков за 3 или 6 часов, мм.
SD - Снежный покров - Высота снежного покрова, см.